Location: Unspecified
(0.0000°N, 0.0000°E)
Time: 00:19:54
(UTC+02:00)

Iridium 39 - Visible Passes

Search period start: 02 October 2014 00:00
Search period end: 12 October 2014 00:00
Orbit: 776 x 779 km, 86.4° (Epoch: 01 October)

Date Brightness Start Highest point End Pass type
(mag) Time Alt. Az. Time Alt. Az. Time Alt. Az.
02 Oct 6.3 06:04:16 10° S 06:09:27 69° E 06:14:36 10° N visible
03 Oct 7.7 05:31:27 10° SSE 05:35:59 30° E 05:40:30 10° NNE visible
03 Oct 7.5 07:13:37 10° WSW 07:16:24 15° W 07:19:11 10° WNW visible
04 Oct 8.8 05:00:00 10° ESE 05:02:32 14° E 05:05:03 10° ENE visible
04 Oct 6.6 06:38:20 10° SSW 06:42:57 32° W 06:47:33 10° NNW visible
05 Oct 5.8 06:04:18 10° S 06:09:30 74° W 06:14:41 10° N visible
06 Oct 7.7 05:31:01 10° SSE 05:41:03 10° NNE 05:33:26 26° SSE visible
